Weather Roundup
Issued by NWS

Home | Current Version | Previous Version | Text Only | Print | Product List | Glossary On
Versions: 1 2 3 4 5 6 7 8 9 10 11 12 13 14 15 16 17 18 19 20 21 22 23 24 25 26 27 28 29 30 31 32 33 34 35 36 37 38 39 40 41 42 43 44 45 46 47 48 49 50
000
NZUS93 KARX 160910
HRRWXR

CURRENT HOURLY OBSERVATIONS ACROSS
MUCH OF THE UPPER MISSISSIPPI VALLEY
NATIONAL WEATHER SERVICE LA CROSSE WI
400 AM CDT TUE SEP 16 2014


...SOUTHEAST MINNESOTA...


CITY           SKY/WX    TMP DP  RH WIND       PRES   REMARKS
ROCHESTER      CLEAR     40  36  86 SW7       30.23S
ROCHESTER/MAYO FAIR      45  37  76 CALM      30.23R
WINONA         PTCLDY    41  39  93 CALM      30.23R
AUSTIN           N/A     37  37 100 CALM      30.23S FOG
ALBERT LEA     CLEAR     43  43 100 CALM      30.23S
DODGE CENTER   CLEAR     39  37  93 SW5       30.22S
PRESTON        CLEAR     40  40 100 W3        30.23S
OWATONNA       CLEAR     39  37  93 CALM      30.22F
FARIBAULT      CLEAR     39  34  81 CALM      30.22S
$$

...ELSEWHERE IN MINNESOTA...


CITY           SKY/WX    TMP DP  RH WIND       PRES   REMARKS
MINNEAPOLIS    CLEAR     45  40  82 S3        30.21S
INTNL FALLS    CLEAR     39  37  92 SW6       30.01F WCI  35
DULUTH         CLEAR     46  36  68 W12       30.10F
RED WING       CLEAR     37  36  93 CALM      30.21S
REDWOOD FALLS  CLEAR     43  37  79 SW7       30.20F
MANKATO        CLEAR     43  36  75 S3        30.22S
WORTHINGTON    CLEAR     39  37  93 SW5       30.23F
FAIRMONT       CLEAR     43  37  81 SW6       30.23F
$$

...SOUTHWEST WISCONSIN...


CITY           SKY/WX    TMP DP  RH WIND       PRES   REMARKS
LA CROSSE      FOG       46  45  96 S7        30.22S VSB 3/4
PRAIRIE DU CHI FOG       41  40  96 CALM      30.24S VSB 1/4
BOSCOBEL       FOG       45  43  93 SW3       30.24F VSB 1/4
LONE ROCK      HAZE      45  40  82 W3        30.23F VSB 1/4
PLATTEVILLE      N/A     40  39  97 CALM      30.23S VSB 1/2
FORT MC COY    CLOUDY    33  33 100 CALM      30.23S
CAMP DOUGLAS   CLEAR     34  34 100 CALM      30.20F FOG
VIROQUA        FAIR      41  41 100 SW5       30.22S
WIS DELLS      CLEAR     40  39  96 CALM      30.21F
$$

...ELSEWHERE IN WISCONSIN...


CITY           SKY/WX    TMP DP  RH WIND       PRES   REMARKS
MILWAUKEE      CLEAR     47  43  86 NW7       30.19R
MADISON        CLEAR     39  37  92 CALM      30.21F
GREEN BAY      CLEAR     40  39  97 W5        30.17F
EAU CLAIRE     CLEAR     39  37  92 SW6       30.20S WCI  35
BLACK RVR FLS  FAIR      34  34 100 CALM      30.21S FOG
MEDFORD        CLEAR     35  35  97 CALM      30.18S
WAUSAU         CLEAR     39  37  92 N3        30.17S
WIS RAPIDS     CLEAR     37  36  96 CALM      30.21S FOG
MARSHFIELD     CLEAR     38  35  89 W5        30.18F WCI  34
RICE LAKE      CLEAR     37  36  97 CALM      30.20F
$$

...NORTHEAST IOWA...


CITY           SKY/WX    TMP DP  RH WIND       PRES   REMARKS
WATERLOO       MOCLDY    36  35  96 CALM      30.23F FOG
DUBUQUE        CLEAR     43  41  93 N6        30.23S
DECORAH        CLEAR     41  39  93 CALM      30.22F
MASON CITY     CLEAR     37  37 100 CALM      30.25F FOG
CHARLES CITY   FOG       39  37  93 CALM      30.24F VSB 3/4
OELWEIN        CLEAR     39  39 100 CALM      30.24S
$$

...ELSEWHERE IN IOWA...


CITY           SKY/WX    TMP DP  RH WIND       PRES   REMARKS
DES MOINES     CLEAR     47  44  90 NW3       30.26S
IOWA CITY      CLEAR     43  42  97 CALM      30.25S
FORT DODGE     MOCLDY    39  37  93 CALM      30.25F
MARSHALLTOWN   CLEAR     38  38 100 NW5       30.25R FOG     WCI  34
CEDAR RAPIDS   CLEAR     42  42 100 NW3       30.23S
$$

...NORTHERN ILLINOIS...


CITY           SKY/WX    TMP DP  RH WIND       PRES   REMARKS
CHICAGO-OHARE  CLEAR     47  44  90 W5        30.19R
DUPAGE         CLEAR     43  40  89 CALM      30.19S
CHICAGO-MIDWAY PTCLDY    50  47  89 W6        30.19S
MOLINE         CLEAR     43  41  93 CALM      30.23S
ROCKFORD       CLEAR     43  39  86 CALM      30.23R
STERLING       CLEAR     43  39  87 W3        30.22S
PEORIA         CLEAR     50  46  86 N5        30.22S
$$

NOTE: "FAIR" INDICATES FEW OR NO CLOUDS BELOW 12,000 FEET WITH NO
SIGNIFICANT WEATHER AND/OR OBSTRUCTIONS TO VISIBILITY. WIND
SPEEDS ARE IN MILES-PER-HOUR.



USA.gov is the U.S. government's official web portal to all federal, state and local government web resources and services.